7 * 24
多渠道服务支持
STARLINK-37119(NORAD编号68210)是美国SpaceX公司星链(Starlink)星座中的一颗低轨互联网卫星,属于全球卫星互联网组网计划的组成部分。星链计划旨在近地轨道搭建大规模卫星星座,为全球提供全天候高速低成本互联网接入,同时具备潜在军事应用价值。该卫星运行在近地轨道,参与星座组网,依托SpaceX可复用火箭发射技术部署,目前在轨承担通信中继服务,不过大规模星链卫星部署也引发天文观测与轨道安全等领域的相关争议。
美国
(US)
| 数据来源 | 国际轨道数据 |
| 星历时间: | 2026-06-09T22:52:38+0800 21小时前 查看轨道信息 |
| 半长轴: | 6843.664km |
| 偏心率: | 0.0001639 |
| 轨道倾角: | 97.287° |
| 近地点辐角 | 100.836° |
| 升交点赤经 | 35.804° |
| 平近点角 | 259.306° |
| 近地点: | 464.405km |
| 远地点: | 466.649km |
| 周期: | 93.906分钟 |
| 每日圈数: | 15.334507 |